Welcome to the New NWS' Forecast!
Most changes are behind the scenes, but click here for differences you might notice.
Latest weather observations around

Olathe, Johnson County Executive Airport (KOJC)

Using English Units (Switch to International System of Units)
Date/ Time (CDT) Wind (mph) Vis. (mi) Weather Sky Cond. Temp (°F) Rel. Humidity Wind Chill (°F) Heat Index (°F) Pressure Precip. (in)
Air Dwpt 6 hour Altimeter (inHg) Sea level (inHg) 1 hr 3 hr 6 hr
Max Min
Oct 18 18:53 SE 3 10 Clear CLR 57 43     59%     30.33 30.33      
Oct 18 17:53 SSE 6 10 Clear CLR 60 43     53%     30.36 30.36      
Oct 18 16:53 SSE 9 10 Clear CLR 63 43     48%     30.36 30.36      
Oct 18 15:53 SSW 5 10 Clear CLR 63 43     48%     30.39 30.39      
Oct 18 14:53 S 8 10 Clear CLR 62 42     48%     30.41 30.41      
Oct 18 13:53 SSW 8 10 Clear CLR 62 42     48%     30.45 30.44      
Oct 18 12:53 S 8 10 Clear CLR 60 41     49%     30.48 30.47      
Oct 18 11:53 SSE 9 10 Clear CLR 59 40     49%     30.5 30.5      
Oct 18 10:53 S 10 10 Clear CLR 56 41     57%     30.52 30.52      
Oct 18 09:53 SSE 10 10 Clear CLR 52 41     66%     30.52 30.53      
Oct 18 08:53 S 7 10 Clear CLR 46 41     82% 42   30.52 30.53      
Oct 18 07:53 SSE 5 10 Clear CLR 40 39     97% 37   30.5 30.51      
Oct 18 06:53 SE 5 10 Clear CLR 42 37     82% 39   30.5 30.5      
Oct 18 05:53 SSE 3 10 Clear CLR 43 39     86% 41   30.49 30.49      
Oct 18 04:53 S 5 10 Clear CLR 43 39     86% 40   30.48 30.48      
Oct 18 03:53 SSE 5 10 Clear CLR 40 40     100% 37   30.47 30.47      
Oct 18 02:53 SE 3 10 Clear CLR 46 39     76% 45   30.48 30.47      
Oct 18 01:53 SE 5 10 Clear CLR 46 40     79% 44   30.48 30.48      
Oct 18 00:53 Calm 10 Clear CLR 46 42     86%     30.48 30.48      
Oct 17 23:53 SE 3 10 Clear CLR 45 39     80% 44   30.49 30.49      
Oct 17 22:53 Calm 10 Clear CLR 49 41     74%     30.49 30.49      
Oct 17 21:53 E 3 10 Clear CLR 50 41     71%     30.49 30.49      
Oct 17 20:53 Calm 10 Clear   52 42     69%     30.47 30.47      
Oct 17 19:53 NE 3 10 Clear CLR 58 40     51%     30.46 30.47      
Oct 17 18:53 NE 3 10 Clear CLR 59 40     49%     30.44 30.44      
Oct 17 17:53 NE 8 10 Clear CLR 62 40     44%     30.43 30.43      
Oct 17 16:53 NNE 8 10 Clear CLR 65 38     37%     30.42 30.42      
Oct 17 15:53 NNW 8 10 Clear CLR 66 41     40%     30.42 30.42      
Oct 17 14:53 N 9 10 Clear CLR 65 39     38%     30.42 30.42      
Oct 17 13:53 NNW 10 10 Clear CLR 65 39     38%     30.44 30.44      
Oct 17 12:53 N 11 10 Clear CLR 63 40     43%     30.46 30.45      
Oct 17 11:53 N 7 10 Clear CLR 62 41     46%     30.46 30.46      
Oct 17 10:53 NNE 5 10 Clear CLR 59 44     58%     30.46 30.45      
Oct 17 09:53 N 6 10 Clear CLR 54 43     66%     30.45 30.45      
Oct 17 08:53 NNW 6 10 Clear CLR 49 42     77% 46   30.42 30.43      
Oct 17 07:53 Calm 10 Clear CLR 41 39     93%     30.39 30.4      
Oct 17 06:53 Calm 10 Clear CLR 42 39     89%     30.36 30.36      
Oct 17 05:53 NW 7 10 Clear CLR 43 39     86% 39   30.34 30.34      
Oct 17 04:53 NW 6 10 Clear CLR 45 39     80% 42   30.33 30.33      
Oct 17 03:53 WNW 3 10 Clear CLR 45 39     80% 44   30.32 30.32      
Oct 17 02:53 WNW 6 10 Clear CLR 47 39     74% 44   30.32 30.32      
Oct 17 01:53 W 5 10 Clear CLR 48 38     68% 46   30.3 30.3      
Oct 17 00:53 W 5 10 Clear CLR 48 38     68% 46   30.28 30.27      
Oct 16 22:53 SW 5 10 Clear CLR 50 37     61%     30.26 30.27      
Oct 16 21:53 SW 3 10 Clear CLR 48 38     68% 47   30.25 30.26      
Oct 16 20:53 SW 3 10 Clear CLR 51 36     56%     30.24 30.25      
Oct 16 19:53 SW 3 10 Clear CLR 53 37     54%     30.23 30.24      
Oct 16 18:53 SW 3 10 Clear   55 37     51%     30.22 30.23      
Oct 16 17:53 WSW 7 10 Clear CLR 59 34     39%     30.2 30.22      
Oct 16 16:53 W 8 10 Clear CLR 60 34     37%     30.2 30.2      
Oct 16 15:53 W 10 10 Clear CLR 60 34     37%     30.21 30.21      
Oct 16 14:53 W 9 10 Clear CLR 58 34     40%     30.22 30.23      
Oct 16 13:53 7 10 Clear CLR 56 35     45%     30.24 30.25      
Oct 16 12:53 WSW 10 10 Clear CLR 54 33     45%     30.27 30.28      
Oct 16 11:53 WSW 9 10 Clear CLR 50 33     52%     30.29 30.3      
Oct 16 10:53 SW 11 10 Clear CLR 46 33     60% 41   30.31 30.32      
Oct 16 09:53 WSW 10 10 Clear CLR 42 33     70% 36   30.32 30.34      
Oct 16 08:53 SSW 6 10 Clear CLR 34 33     96% 29   30.33 30.36      
Oct 16 07:53 SW 5 10 Clear CLR 30 29     96% 25   30.3 30.33      
Oct 16 06:53 SSW 5 10 Clear CLR 29 29     100% 24   30.32 30.35      
Oct 16 05:53 SSW 5 10 Clear CLR 29 29     100% 24   30.32 30.34      
Oct 16 04:53 SW 6 10 Clear CLR 29 28     96% 23   30.32 30.34      
Oct 16 03:53 Calm 10 Clear CLR 31 29     92%     30.32 30.34      
Oct 16 02:53 Calm 10 Clear CLR 29 29     100%     30.33 30.35      
Oct 16 01:53 SW 3 10 Clear CLR 31 30     96% 28   30.33 30.35      
Oct 16 00:53 Calm 10 Clear CLR 33 31     92%     30.33 30.35      
Oct 15 23:53 W 3 10 Clear CLR 34 30     85% 31   30.33 30.35      
Oct 15 22:53 WNW 3 10 Clear CLR 36 30     79% 33   30.35 30.37      
Oct 15 21:53 W 3 10 Clear CLR 37 31     78% 35   30.35 30.37      
Oct 15 20:53 Calm 10 Clear CLR 37 32     82%     30.36 30.38      
Oct 15 19:53 Calm 10 Clear CLR 39 31     72%     30.36 30.38      
Oct 15 18:53 WNW 5 10 Clear CLR 41 31     67% 38   30.35 30.38      
Oct 15 17:53 NW 6 10 Clear CLR 44 30     58% 41   30.35 30.37      
Oct 15 16:53 3 10 Clear CLR 45 30     56% 44   30.36 30.38      
Oct 15 15:53 NW 7 10 Clear CLR 44 31     60% 40   30.38 30.4      
Oct 15 14:53 7 10 Clear CLR 43 30     60% 39   30.38 30.4      
Oct 15 13:53 N 10 10 Mostly Cloudy BKN031 42 30     62% 36   30.4 30.42      
Oct 15 12:53 NW 6 10 Cloudy OVC030 40 30     67% 36   30.41 30.43      
Oct 15 12:05 5 10 Mostly Cloudy BKN030 39 28     64% 36   30.41        
Oct 15 11:53 NNW 9 10 Mostly Cloudy BKN028 40 30     67% 34   30.42 30.44      
Oct 15 11:30 NNW 10 10 Mostly Cloudy BKN028 38 28     67% 31   30.41        
Oct 15 10:53 N 13 10 Partly Cloudy SCT024 39 29     67% 31   30.4 30.42      
Oct 15 09:53 N 11 10 Mostly Clear FEW020 36 29     75% 28   30.4 30.42      
Oct 15 08:53 N 10 10 Clear CLR 33 30     88% 25   30.38 30.41      
Oct 15 07:53 NNW 7 10 Clear CLR 31 29     92% 24   30.36 30.39      
Oct 15 06:53 NNW 6 10 Clear CLR 31 30     96% 25   30.33 30.36     0
Oct 15 05:53 N 9 10 Clear   33 31     92% 25   30.31 30.33      
Oct 15 04:53 NNW 8 10 Cloudy FEW012 OVC060 33 32     96% 26   30.3 30.32      
Oct 15 04:20 NNW 10 10 Cloudy FEW012 OVC060 33 32     96% 25   30.29        
Oct 15 03:53 NNW 11 10 Cloudy BKN011 OVC060 33 32     96% 24   30.29 30.31   0  
Oct 15 03:26 NNW 11 10 Cloudy SCT011 OVC055 33 32     96% 24   30.29        
Oct 15 02:53 NNW 13 10 Cloudy OVC012 33 32     96% 24   30.3 30.32      
Oct 15 02:10 N 14 10 Cloudy OVC011 33 32     96% 23   30.28        
Oct 15 01:53 NNW 13 8 Cloudy OVC009 33 32     96% 24   30.28 30.3 0    
Oct 15 00:53 N 11 5 Fog/Mist BKN009 OVC015 33 32     96% 24   30.27 30.28     0
Oct 15 00:48 N 16 6 Fog/Mist OVC011 34 32     93% 24   30.28        
Oct 14 23:53 N 15 6 Fog/Mist   33 33     100% 23   30.26 30.27 0    
Oct 14 22:53 NNW 17 4 Fog/Mist BKN008 OVC013 34 34     100% 23   30.23 30.25 0    
Oct 14 21:53 N 14 4 Fog/Mist BKN007 OVC013 35 35     100% 26   30.2 30.21 0 0  
Oct 14 21:39 NNW 17 3 Unknown Precipitation and Fog/Mist BKN009 OVC014 35 34     96% 25   30.2   0    
Oct 14 21:08 N 16 9 Cloudy BKN010 OVC013 35 34     96% 25   30.17        
Oct 14 20:53 N 15 8 Cloudy OVC008 35 35     100% 26   30.16 30.17      
Oct 14 19:53 N 16 5 Fog/Mist OVC007 36 36     100% 26   30.14 30.15      
Oct 14 18:53 N 13 10 Cloudy OVC007 39 38     96% 31   30.11 30.11 0   0
Oct 14 17:53 N 13 10 Cloudy OVC007 39 39     100% 31   30.07 30.08 0    
Oct 14 16:53   4 Rain and Fog/Mist BKN007 OVC038 39 39     100%     30.03 30.04 0    
Oct 14 16:42 N 13 2 Heavy Rain and Fog/Mist SCT007 OVC038 39 39     100% 31   30.03   0    
Oct 14 16:28 N 16 2 Heavy Rain and Fog/Mist FEW009 OVC036 39 38     96% 30   30.04   0    
Oct 14 16:21 N 15 2 Heavy Rain and Fog/Mist SCT009 BKN028 OVC039 39 38     96% 31   30.04   0    
Oct 14 15:53 N 16 2 Light Rain and Fog/Mist BKN009 BKN034 OVC070 40 39     97% 31   30.01 30.02 0 0  
Oct 14 15:48   2 Rain and Fog/Mist BKN009 BKN035 OVC070 39 39     100%     30   0    
Oct 14 15:41 N 16 2 Fog/Mist SCT007 BKN012 OVC070 40 39     97% 31   30   0    
Oct 14 15:34   2 Light Rain and Fog/Mist BKN007 BKN012 OVC070 40 40     100%     29.98   0    
Oct 14 15:20 N 20 2 Light Rain and Fog/Mist SCT007 BKN012 OVC019 41 40     96% 32   30.02   0    
Oct 14 15:12 N 21 3 Light Rain and Fog/Mist SCT007 BKN012 OVC017 41 40     96% 32   30.02   0    
Oct 14 14:53 NNW 20 2 Light Rain and Fog/Mist BKN006 OVC011 43 42     97% 34   30 30 0    
Oct 14 14:48 N 20 2 Light Rain and Fog/Mist SCT006 BKN011 OVC020 43 43     100% 34   30   0    
Oct 14 14:38 NNW 20 1.75 Light Rain and Fog/Mist FEW006 BKN012 OVC018 44 44     100% 36   30   0    
Oct 14 14:31 NNW 18 1.75 Light Rain and Fog/Mist BKN006 BKN012 OVC018 47 47     100% 40   29.99   0    
Oct 14 14:22 N 10 1.75 Light Rain and Fog/Mist FEW006 BKN015 OVC020 49 49     100% 45   29.99   0    
Oct 14 14:14 N 11 1.75 Light Rain and Fog/Mist BKN008 OVC014 49 48     97% 44   29.99   0    
Oct 14 14:08 NNW 10 2 Light Rain and Fog/Mist BKN010 OVC015 49 49     100% 45   29.99   0    
Oct 14 13:53 N 10 2.5 Fog/Mist BKN008 OVC012 50 49     96%     29.97 29.97      
Oct 14 13:51 N 8 2.5 Fog/Mist SCT006 OVC012 50 48     94%     29.97        
Oct 14 13:32 N 8 2 Fog/Mist BKN009 OVC017 50 49     96%     29.98        
Oct 14 12:53 N 7 3 Fog/Mist BKN007 OVC012 50 50     100%     29.98 29.98      
Oct 14 11:53 NNE 7 5 Fog/Mist OVC005 49 49     100% 46   29.98 29.98      
Oct 14 10:53 NNE 11 3 Fog/Mist OVC003 49 49     100% 44   29.97 29.98      
Oct 14 10:37 NNE 9 4 Fog/Mist OVC003 49 49     100% 45   29.98        
Oct 14 09:53 NE 7 2.5 Fog/Mist OVC003 49 49     100% 46   29.97 29.97      
Oct 14 08:53 NE 6 2 Fog/Mist OVC003 48 48     100% 45   29.95 29.95      
Oct 14 08:51 NE 6 2 Fog/Mist OVC003 48 48     100% 46   29.95        
Oct 14 08:32 NE 6 1.5 Fog/Mist OVC002 48 48     100% 45   29.94        
Oct 14 07:53 NE 3 1.25 Fog/Mist OVC002 48 48     100% 47   29.94 29.94      
Oct 14 07:51 NE 5 1.25 Fog/Mist OVC002 48 48     100% 46   29.94        
Oct 14 07:30 NE 3 1.75 Fog/Mist OVC002 48 48     100% 47   29.93        
Oct 14 06:53 ESE 3 3 Fog/Mist OVC002 47 47     100% 46   29.93 29.93      
Oct 14 06:46 Calm 3 Fog/Mist OVC002 47 47     100%     29.92        
Oct 14 06:28 ESE 6 2.5 Fog/Mist OVC002 47 47     100% 44   29.91        
Oct 14 06:03 E 6 1.75 Fog/Mist OVC002 47 47     100% 44   29.92        
Oct 14 05:53 ESE 6 3 Fog/Mist OVC002 47 47     100% 44   29.91 29.91      
Oct 14 05:24 E 7 10 Cloudy OVC003 47 47     100% 44   29.91        
Oct 14 05:03 ESE 6 10 Cloudy OVC004 48 48     100% 45   29.91        
Oct 14 04:53 ESE 7 10 Cloudy OVC005 48 48     100% 45   29.9 29.9      
Oct 14 04:10 ENE 5 10 Cloudy OVC005 48 48     100% 46   29.9        
Oct 14 03:53 ESE 6 10 Cloudy OVC004 48 48     100% 45   29.9 29.89      
Oct 14 03:22 ESE 5 10 Cloudy OVC004 48 48     100% 46   29.9        
Oct 14 02:53 ESE 6 10 Cloudy OVC005 48 48     100% 45   29.9 29.9      
Oct 14 01:53 ESE 3 10 Cloudy OVC006 48 48     100% 47   29.9 29.9      
Oct 14 00:53 E 6 10 Cloudy BKN006 OVC034 48 48     100% 45   29.9 29.9      
Oct 14 00:11 ESE 7 10 Cloudy BKN006 OVC035 47 47     100% 44   29.9        
Oct 14 00:00 ESE 3 10 Mostly Cloudy SCT006 BKN035 47 47     100% 46   29.9        
Oct 13 23:53 ESE 5 10 Mostly Cloudy BKN035 46 46     100% 44   29.9 29.9      
Oct 13 23:01 ESE 8 10 Mostly Clear FEW007 47 47     100% 43   29.9        
Oct 13 22:53 SE 3 10 Clear CLR 47 47     100% 46   29.91 29.91      
May 12 18:53 S 14 10 Cloudy OVC055 79 67     67%   80 29.88 29.85      
May 11 23:53 S 10 10 Clear CLR 74 62     66%   74 29.84 29.8      
May 11 11:53 SSW 21 10 Partly Cloudy and Windy SCT037 77 63     62%   77 29.77 29.74      
May 11 08:53 SE 9 10 Mostly Clear FEW110 63 60     90%     29.81 29.78      
Jun 11 16:53 S 25 10 Clear and Windy CLR 87 70     57%   92 29.81 29.77      
Jun 10 20:53 S 15 10 Clear CLR 79 69     72%   80 29.78 29.74      
Jun 09 23:53 S 7 10 Clear CLR 69 60     73%     29.84 29.8      
Jun 09 06:53 S 3 10 Clear CLR 59 55     87%     29.93 29.9      
Jun 08 02:53 ESE 6 10 Clear CLR 62 50     65%     30.04 30.01      
Jun 07 18:53 ESE 5 10 Clear CLR 76 51     42%   75 30.05 30.02      
Jun 07 17:06 SSE 7 10 Clear CLR 78 50     37%   77 30.06        
Jun 07 07:53 NE 5 10 Clear CLR 65 54     68%     30.11 30.09      
Jun 06 07:53 ENE 10 10 Clear CLR 67 58     73%     30 29.97